User: anonymous   Login
Location: Unspecified
(0.0000°N, 0.0000°E)
Time: 15:52:03
(UTC+00:00)
Language:

SARA - Orbit

View from above orbital plane
View from above orbital plane
View from above satellite
View from above satellite

Ground track
Ground track

The orbit data is extracted from the following two-line orbital elements,

1 21576U 91050C   18203.57562521 +.00000018 +00000-0 +19541-4 0  9996
2 21576 098.6792 241.8294 0003563 180.4898 179.6288 14.41519549418725
Epoch (UTC): 22 July 2018 13:48:54
Eccentricity: 0.0003563
inclination: 98.6792°
perigee height: 751 km
apogee height: 756 km
right ascension of ascending node: 241.8294°
argument of perigee: 180.4898°
revolutions per day: 14.41519549
mean anomaly at epoch: 179.6288°
orbit number at epoch: 41872

The dashed part of the orbit path shows where the satellite is in the earth's shadow,  

DLR